Time,TemperatureF,DewpointF,PressureIn,WindDirection,WindDirectionDegrees,WindSpeedMPH,WindSpeedGustMPH,Humidity,HourlyPrecipIn,Conditions,Clouds,dailyrainin,SoftwareType,DateUTC
2013-01-02 00:00:00,54.2,52.5,29.93,NW,306,1.0,4.0,94,0.00,,---,0.00,VWS V14.01,2013-01-02 05:00:00,
2013-01-02 00:01:00,54.2,52.5,29.93,NW,306,2.0,4.0,94,0.00,,---,0.00,VWS V14.01,2013-01-02 05:01:00,
2013-01-02 00:06:00,54.3,52.6,29.92,NW,306,0.0,3.0,94,0.00,,---,0.00,VWS V14.01,2013-01-02 05:06:00,
2013-01-02 00:11:00,54.3,52.6,29.92,NW,306,0.0,0.0,94,0.00,,---,0.00,VWS V14.01,2013-01-02 05:11:00,
2013-01-02 00:16:00,54.2,52.5,29.92,NW,306,0.0,1.0,94,0.00,,---,0.00,VWS V14.01,2013-01-02 05:16:00,
2013-01-02 00:21:00,54.2,52.5,29.92,NW,306,0.0,1.0,94,0.00,,---,0.00,VWS V14.01,2013-01-02 05:21:00,
2013-01-02 00:26:00,54.2,52.5,29.92,NW,306,0.0,3.0,94,0.00,,---,0.00,VWS V14.01,2013-01-02 05:26:00,
2013-01-02 00:31:00,54.2,52.5,29.92,NW,306,0.0,0.0,94,0.00,,---,0.00,VWS V14.01,2013-01-02 05:31:00,
2013-01-02 00:36:00,54.2,52.5,29.92,NW,306,0.0,0.0,94,0.00,,---,0.00,VWS V14.01,2013-01-02 05:36:00,
2013-01-02 00:41:00,54.1,52.4,29.92,NW,306,0.0,0.0,94,0.00,,---,0.00,VWS V14.01,2013-01-02 05:41:00,
2013-01-02 00:46:00,54.0,52.3,29.92,NW,306,0.0,0.0,94,0.00,,---,0.00,VWS V14.01,2013-01-02 05:46:00,
2013-01-02 00:51:00,53.9,52.2,29.92,NW,306,0.0,0.0,94,0.00,,---,0.00,VWS V14.01,2013-01-02 05:51:00,
2013-01-02 00:56:00,53.9,52.2,29.92,NW,306,0.0,0.0,94,0.00,,---,0.00,VWS V14.01,2013-01-02 05:56:00,
2013-01-02 01:01:00,54.0,52.3,29.92,NW,306,0.0,0.0,94,0.00,,---,0.00,VWS V14.01,2013-01-02 06:01:00,
2013-01-02 01:06:00,54.1,52.4,29.91,NW,306,0.0,0.0,94,0.00,,---,0.00,VWS V14.01,2013-01-02 06:06:00,
2013-01-02 01:11:00,54.1,52.4,29.91,NW,306,0.0,0.0,94,0.00,,---,0.00,VWS V14.01,2013-01-02 06:11:00,
2013-01-02 01:16:00,54.0,52.3,29.91,NW,306,0.0,0.0,94,0.00,,---,0.00,VWS V14.01,2013-01-02 06:16:00,
2013-01-02 01:21:00,54.0,52.3,29.90,NW,306,0.0,0.0,94,0.00,,---,0.00,VWS V14.01,2013-01-02 06:21:00,
2013-01-02 01:26:00,54.0,52.3,29.90,NW,306,0.0,0.0,94,0.00,,---,0.00,VWS V14.01,2013-01-02 06:26:00,
2013-01-02 01:31:00,53.9,52.2,29.90,NW,306,0.0,0.0,94,0.00,,---,0.00,VWS V14.01,2013-01-02 06:31:00,
2013-01-02 01:36:00,53.7,52.0,29.89,NW,306,0.0,0.0,94,0.00,,---,0.00,VWS V14.01,2013-01-02 06:36:00,
2013-01-02 01:41:00,53.7,52.0,29.89,NW,306,0.0,0.0,94,0.00,,---,0.00,VWS V14.01,2013-01-02 06:41:00,
2013-01-02 01:46:00,53.6,51.9,29.89,NW,306,0.0,0.0,94,0.00,,---,0.00,VWS V14.01,2013-01-02 06:46:00,
2013-01-02 01:51:00,53.5,51.8,29.90,NW,306,0.0,0.0,94,0.00,,---,0.00,VWS V14.01,2013-01-02 06:51:00,
2013-01-02 01:56:00,53.5,51.8,29.90,NW,306,0.0,0.0,94,0.00,,---,0.00,VWS V14.01,2013-01-02 06:56:00,
2013-01-02 02:01:00,53.5,51.8,29.90,NW,306,0.0,0.0,94,0.00,,---,0.00,VWS V14.01,2013-01-02 07:01:00,
2013-01-02 02:06:00,53.4,51.7,29.90,NW,306,0.0,0.0,94,0.00,,---,0.00,VWS V14.01,2013-01-02 07:06:00,
2013-01-02 02:11:00,53.4,51.7,29.90,NW,306,0.0,0.0,94,0.00,,---,0.00,VWS V14.01,2013-01-02 07:11:00,
2013-01-02 02:16:00,53.5,51.8,29.90,NW,306,0.0,2.0,94,0.00,,---,0.00,VWS V14.01,2013-01-02 07:16:00,
2013-01-02 02:21:00,53.5,51.8,29.89,NW,306,0.0,1.0,94,0.00,,---,0.00,VWS V14.01,2013-01-02 07:21:00,
2013-01-02 02:26:00,53.6,51.9,29.89,NW,306,0.0,1.0,94,0.00,,---,0.00,VWS V14.01,2013-01-02 07:26:00,
2013-01-02 02:31:00,53.5,51.8,29.89,NW,306,0.0,2.0,94,0.00,,---,0.00,VWS V14.01,2013-01-02 07:31:00,
2013-01-02 02:36:00,53.5,51.8,29.90,NW,306,1.0,3.0,94,0.00,,---,0.00,VWS V14.01,2013-01-02 07:36:00,
2013-01-02 02:41:00,53.5,51.8,29.90,NW,306,2.0,3.0,94,0.00,,---,0.00,VWS V14.01,2013-01-02 07:41:00,
2013-01-02 02:46:00,53.5,51.8,29.90,NW,306,0.0,3.0,94,0.00,,---,0.00,VWS V14.01,2013-01-02 07:46:00,
2013-01-02 02:51:00,53.5,51.8,29.90,NW,306,0.0,0.0,94,0.00,,---,0.00,VWS V14.01,2013-01-02 07:51:00,
2013-01-02 02:56:00,53.5,51.8,29.90,NW,306,0.0,0.0,94,0.01,,---,0.01,VWS V14.01,2013-01-02 07:56:00,
2013-01-02 03:01:00,53.4,52.0,29.90,NW,306,0.0,0.0,95,0.01,,---,0.01,VWS V14.01,2013-01-02 08:01:00,
2013-01-02 03:06:00,53.4,52.0,29.89,NW,306,0.0,0.0,95,0.01,,---,0.01,VWS V14.01,2013-01-02 08:06:00,
2013-01-02 03:11:00,53.3,51.9,29.89,NW,306,0.0,5.0,95,0.01,,---,0.01,VWS V14.01,2013-01-02 08:11:00,
2013-01-02 03:16:00,53.3,51.9,29.89,NW,306,0.0,0.0,95,0.01,,---,0.01,VWS V14.01,2013-01-02 08:16:00,
2013-01-02 03:21:00,53.2,51.8,29.88,NW,306,3.0,4.0,95,0.01,,---,0.01,VWS V14.01,2013-01-02 08:21:00,
2013-01-02 03:26:00,53.2,51.8,29.88,NW,306,0.0,2.0,95,0.01,,---,0.01,VWS V14.01,2013-01-02 08:26:00,
2013-01-02 03:31:00,53.1,51.7,29.88,NW,306,3.0,4.0,95,0.01,,---,0.01,VWS V14.01,2013-01-02 08:31:00,
2013-01-02 03:36:00,53.1,51.7,29.88,NW,306,0.0,4.0,95,0.01,,---,0.01,VWS V14.01,2013-01-02 08:36:00,
2013-01-02 03:41:00,53.1,51.7,29.88,NW,306,0.0,2.0,95,0.01,,---,0.01,VWS V14.01,2013-01-02 08:41:00,
2013-01-02 03:46:00,53.1,51.7,29.88,NW,306,0.0,0.0,95,0.01,,---,0.01,VWS V14.01,2013-01-02 08:46:00,
2013-01-02 03:51:00,53.0,51.6,29.89,NW,306,0.0,0.0,95,0.01,,---,0.01,VWS V14.01,2013-01-02 08:51:00,
2013-01-02 03:56:00,53.0,51.6,29.89,NW,306,0.0,0.0,95,0.01,,---,0.01,VWS V14.01,2013-01-02 08:56:00,
2013-01-02 04:01:00,52.9,51.5,29.89,NW,306,0.0,0.0,95,0.00,,---,0.01,VWS V14.01,2013-01-02 09:01:00,
2013-01-02 04:06:00,52.9,51.5,29.89,NW,306,0.0,0.0,95,0.00,,---,0.01,VWS V14.01,2013-01-02 09:06:00,
2013-01-02 04:11:00,52.9,51.5,29.89,NW,306,0.0,0.0,95,0.01,,---,0.02,VWS V14.01,2013-01-02 09:11:00,
2013-01-02 04:16:00,52.9,51.5,29.89,NW,306,0.0,0.0,95,0.01,,---,0.02,VWS V14.01,2013-01-02 09:16:00,
2013-01-02 04:21:00,52.9,51.5,29.89,NW,306,0.0,0.0,95,0.01,,---,0.02,VWS V14.01,2013-01-02 09:21:00,
2013-01-02 04:26:00,52.8,51.4,29.89,NW,306,4.0,5.0,95,0.02,,---,0.03,VWS V14.01,2013-01-02 09:26:00,
2013-01-02 04:31:00,52.8,51.4,29.89,NW,306,2.0,6.0,95,0.02,,---,0.03,VWS V14.01,2013-01-02 09:31:00,
2013-01-02 04:36:00,52.8,51.4,29.89,NW,306,4.0,5.0,95,0.03,,---,0.04,VWS V14.01,2013-01-02 09:36:00,
2013-01-02 04:41:00,52.8,51.4,29.89,NW,306,4.0,6.0,95,0.04,,---,0.05,VWS V14.01,2013-01-02 09:41:00,
2013-01-02 04:46:00,52.8,51.4,29.89,NW,308,4.0,6.0,95,0.05,,---,0.06,VWS V14.01,2013-01-02 09:46:00,
2013-01-02 04:51:00,52.8,51.4,29.89,NW,309,4.0,7.0,95,0.05,,---,0.06,VWS V14.01,2013-01-02 09:51:00,
2013-01-02 04:56:00,52.7,51.3,29.89,NW,309,2.0,4.0,95,0.06,,---,0.07,VWS V14.01,2013-01-02 09:56:00,
2013-01-02 05:01:00,52.7,51.3,29.89,NW,317,4.0,6.0,95,0.07,,---,0.08,VWS V14.01,2013-01-02 10:01:00,
2013-01-02 05:06:00,52.6,51.2,29.89,NW,317,4.0,6.0,95,0.07,,---,0.08,VWS V14.01,2013-01-02 10:06:00,
2013-01-02 05:11:00,52.5,51.1,29.89,NNE,31,8.0,10.0,95,0.08,,---,0.09,VWS V14.01,2013-01-02 10:11:00,
2013-01-02 05:16:00,51.3,49.9,29.89,NE,53,9.0,14.0,95,0.09,,---,0.11,VWS V14.01,2013-01-02 10:16:00,
2013-01-02 05:21:00,50.6,49.2,29.88,NE,51,9.0,15.0,95,0.09,,---,0.11,VWS V14.01,2013-01-02 10:21:00,
2013-01-02 05:26:00,50.1,48.7,29.88,NE,42,4.0,16.0,95,0.10,,---,0.12,VWS V14.01,2013-01-02 10:26:00,
2013-01-02 05:31:00,49.9,48.5,29.88,ENE,62,12.0,17.0,95,0.10,,---,0.13,VWS V14.01,2013-01-02 10:31:00,
2013-01-02 05:36:00,49.7,48.3,29.89,NE,41,6.0,15.0,95,0.10,,---,0.13,VWS V14.01,2013-01-02 10:36:00,
2013-01-02 05:41:00,49.6,48.2,29.89,NE,42,10.0,13.0,95,0.10,,---,0.14,VWS V14.01,2013-01-02 10:41:00,
2013-01-02 05:46:00,49.6,48.2,29.89,NE,51,11.0,13.0,95,0.10,,---,0.15,VWS V14.01,2013-01-02 10:46:00,
2013-01-02 05:51:00,49.5,48.1,29.90,NNE,29,3.0,13.0,95,0.10,,---,0.16,VWS V14.01,2013-01-02 10:51:00,
2013-01-02 05:56:00,49.4,48.0,29.90,NE,38,6.0,12.0,95,0.10,,---,0.16,VWS V14.01,2013-01-02 10:56:00,
2013-01-02 06:01:00,49.3,47.9,29.90,NE,37,12.0,13.0,95,0.09,,---,0.16,VWS V14.01,2013-01-02 11:01:00,
2013-01-02 06:06:00,49.1,47.7,29.90,NE,38,5.0,13.0,95,0.08,,---,0.16,VWS V14.01,2013-01-02 11:06:00,
2013-01-02 06:11:00,49.0,47.6,29.90,NE,34,5.0,11.0,95,0.09,,---,0.17,VWS V14.01,2013-01-02 11:11:00,
2013-01-02 06:16:00,48.9,47.5,29.90,NE,46,6.0,11.0,95,0.08,,---,0.17,VWS V14.01,2013-01-02 11:16:00,
2013-01-02 06:21:00,48.8,47.4,29.90,NE,44,6.0,12.0,95,0.06,,---,0.17,VWS V14.01,2013-01-02 11:21:00,
2013-01-02 06:26:00,48.7,47.3,29.90,NE,48,6.0,13.0,95,0.06,,---,0.17,VWS V14.01,2013-01-02 11:26:00,
2013-01-02 06:31:00,48.4,47.0,29.90,NE,44,10.0,13.0,95,0.06,,---,0.18,VWS V14.01,2013-01-02 11:31:00,
2013-01-02 06:36:00,48.3,46.9,29.90,NE,51,5.0,14.0,95,0.05,,---,0.18,VWS V14.01,2013-01-02 11:36:00,
2013-01-02 06:41:00,48.2,46.8,29.90,NE,48,10.0,12.0,95,0.04,,---,0.18,VWS V14.01,2013-01-02 11:41:00,
2013-01-02 06:46:00,48.1,46.7,29.90,NE,46,10.0,14.0,95,0.04,,---,0.18,VWS V14.01,2013-01-02 11:46:00,
2013-01-02 06:51:00,47.9,46.5,29.88,ENE,67,7.0,16.0,95,0.03,,---,0.18,VWS V14.01,2013-01-02 11:51:00,
2013-01-02 06:56:00,47.9,46.8,29.88,ENE,59,4.0,14.0,96,0.02,,---,0.18,VWS V14.01,2013-01-02 11:56:00,
2013-01-02 07:01:00,47.9,46.8,29.88,NE,53,12.0,15.0,96,0.02,,---,0.18,VWS V14.01,2013-01-02 12:01:00,
2013-01-02 07:06:00,47.8,46.7,29.89,ENE,57,10.0,13.0,96,0.02,,---,0.18,VWS V14.01,2013-01-02 12:06:00,
2013-01-02 07:11:00,47.9,46.8,29.89,NE,41,7.0,15.0,96,0.02,,---,0.18,VWS V14.01,2013-01-02 12:11:00,
2013-01-02 07:16:00,47.9,46.8,29.89,NE,53,7.0,14.0,96,0.01,,---,0.18,VWS V14.01,2013-01-02 12:16:00,
2013-01-02 07:21:00,47.9,46.8,29.90,NNE,20,8.0,13.0,96,0.01,,---,0.18,VWS V14.01,2013-01-02 12:21:00,
2013-01-02 07:26:00,47.9,46.8,29.90,NNE,17,5.0,15.0,96,0.01,,---,0.18,VWS V14.01,2013-01-02 12:26:00,
2013-01-02 07:31:00,47.8,46.4,29.90,NNE,19,9.0,14.0,95,0.01,,---,0.18,VWS V14.01,2013-01-02 12:31:00,
2013-01-02 07:36:00,47.7,46.3,29.93,North,9,9.0,15.0,95,0.00,,---,0.18,VWS V14.01,2013-01-02 12:36:00,
2013-01-02 07:41:00,47.7,46.6,29.93,NNE,29,11.0,16.0,96,0.00,,---,0.18,VWS V14.01,2013-01-02 12:41:00,
2013-01-02 07:46:00,47.7,46.3,29.93,NNE,26,5.0,11.0,95,0.00,,---,0.18,VWS V14.01,2013-01-02 12:46:00,
2013-01-02 07:51:00,47.6,46.2,29.92,NE,45,6.0,11.0,95,0.00,,---,0.18,VWS V14.01,2013-01-02 12:51:00,
2013-01-02 07:56:00,47.4,46.0,29.92,NE,39,5.0,13.0,95,0.01,,---,0.19,VWS V14.01,2013-01-02 12:56:00,
2013-01-02 08:01:00,47.4,46.0,29.92,NNE,25,13.0,14.0,95,0.01,,---,0.19,VWS V14.01,2013-01-02 13:01:00,
2013-01-02 08:06:00,47.5,46.4,29.92,NNE,30,5.0,11.0,96,0.01,,---,0.19,VWS V14.01,2013-01-02 13:06:00,
2013-01-02 08:11:00,47.5,46.1,29.92,NNE,22,5.0,10.0,95,0.01,,---,0.19,VWS V14.01,2013-01-02 13:11:00,
2013-01-02 08:16:00,47.5,46.1,29.92,NNE,31,6.0,10.0,95,0.01,,---,0.19,VWS V14.01,2013-01-02 13:16:00,
2013-01-02 08:21:00,47.5,46.1,29.93,NE,36,3.0,9.0,95,0.01,,---,0.19,VWS V14.01,2013-01-02 13:21:00,
2013-01-02 08:26:00,47.5,46.4,29.93,NNE,28,9.0,9.0,96,0.02,,---,0.20,VWS V14.01,2013-01-02 13:26:00,
2013-01-02 08:31:00,47.4,46.3,29.93,NNE,16,11.0,14.0,96,0.02,,---,0.20,VWS V14.01,2013-01-02 13:31:00,
2013-01-02 08:36:00,47.5,46.4,29.95,NNE,22,5.0,15.0,96,0.02,,---,0.20,VWS V14.01,2013-01-02 13:36:00,
2013-01-02 08:41:00,47.4,46.3,29.95,NNE,28,9.0,14.0,96,0.03,,---,0.21,VWS V14.01,2013-01-02 13:41:00,
2013-01-02 08:46:00,47.4,46.3,29.95,NNE,23,12.0,13.0,96,0.04,,---,0.22,VWS V14.01,2013-01-02 13:46:00,
2013-01-02 08:51:00,47.3,46.2,29.95,NNE,13,8.0,14.0,96,0.04,,---,0.22,VWS V14.01,2013-01-02 13:51:00,
2013-01-02 08:56:00,47.4,46.3,29.95,NNE,22,12.0,14.0,96,0.05,,---,0.23,VWS V14.01,2013-01-02 13:56:00,
2013-01-02 09:01:00,47.3,46.2,29.95,NNE,29,5.0,17.0,96,0.04,,---,0.23,VWS V14.01,2013-01-02 14:01:00,
2013-01-02 09:06:00,47.4,46.3,29.97,NNE,19,7.0,16.0,96,0.04,,---,0.23,VWS V14.01,2013-01-02 14:06:00,
2013-01-02 09:11:00,47.3,46.2,29.97,NNE,22,7.0,14.0,96,0.04,,---,0.23,VWS V14.01,2013-01-02 14:11:00,
2013-01-02 09:16:00,47.3,46.2,29.97,NNE,26,11.0,16.0,96,0.04,,---,0.23,VWS V14.01,2013-01-02 14:16:00,
2013-01-02 09:21:00,47.4,46.3,29.98,NNE,13,12.0,15.0,96,0.04,,---,0.23,VWS V14.01,2013-01-02 14:21:00,
2013-01-02 09:26:00,47.4,46.3,29.98,NE,40,7.0,14.0,96,0.04,,---,0.23,VWS V14.01,2013-01-02 14:26:00,
2013-01-02 09:31:00,47.4,46.3,29.98,NNE,31,10.0,15.0,96,0.03,,---,0.23,VWS V14.01,2013-01-02 14:31:00,
2013-01-02 09:36:00,47.4,46.3,29.98,NNE,30,6.0,13.0,96,0.03,,---,0.23,VWS V14.01,2013-01-02 14:36:00,
2013-01-02 09:41:00,47.4,46.3,29.98,NNE,26,11.0,17.0,96,0.03,,---,0.23,VWS V14.01,2013-01-02 14:41:00,
2013-01-02 09:46:00,47.2,45.8,29.98,NNE,22,9.0,17.0,95,0.02,,---,0.23,VWS V14.01,2013-01-02 14:46:00,
2013-01-02 09:51:00,47.3,45.9,29.98,NNE,32,6.0,15.0,95,0.01,,---,0.23,VWS V14.01,2013-01-02 14:51:00,
2013-01-02 09:56:00,47.3,45.9,29.98,NE,38,6.0,17.0,95,0.01,,---,0.23,VWS V14.01,2013-01-02 14:56:00,
2013-01-02 10:01:00,47.4,46.3,29.98,NNE,17,9.0,17.0,96,0.00,,---,0.23,VWS V14.01,2013-01-02 15:01:00,
2013-01-02 10:05:00,47.4,46.0,29.99,NNE,19,10.0,15.0,95,0.00,,---,0.23,VWS V14.01,2013-01-02 15:05:00,
2013-01-02 10:11:00,47.3,45.9,29.99,NNE,17,10.0,18.0,95,0.00,,---,0.23,VWS V14.01,2013-01-02 15:11:00,
2013-01-02 10:15:00,47.3,45.9,29.99,NE,36,10.0,17.0,95,0.00,,---,0.23,VWS V14.01,2013-01-02 15:15:00,
2013-01-02 10:20:00,47.3,45.9,29.99,NNE,26,11.0,16.0,95,0.00,,---,0.23,VWS V14.01,2013-01-02 15:20:00,
2013-01-02 10:26:00,47.2,45.8,30.00,NE,40,12.0,16.0,95,0.00,,---,0.23,VWS V14.01,2013-01-02 15:26:00,
2013-01-02 10:31:00,47.3,45.9,30.00,NE,38,6.0,14.0,95,0.00,,---,0.23,VWS V14.01,2013-01-02 15:31:00,
2013-01-02 10:36:00,47.2,45.8,29.99,NNE,28,10.0,19.0,95,0.00,,---,0.23,VWS V14.01,2013-01-02 15:36:00,
2013-01-02 10:40:00,47.1,45.7,29.99,NNE,12,12.0,19.0,95,0.00,,---,0.23,VWS V14.01,2013-01-02 15:40:00,
2013-01-02 10:45:00,47.2,45.8,29.99,NE,34,13.0,15.0,95,0.00,,---,0.23,VWS V14.01,2013-01-02 15:45:00,
2013-01-02 10:51:00,47.1,45.7,29.99,NNE,22,6.0,16.0,95,0.00,,---,0.23,VWS V14.01,2013-01-02 15:51:00,
2013-01-02 10:55:00,47.1,45.7,29.99,NNE,26,7.0,16.0,95,0.00,,---,0.23,VWS V14.01,2013-01-02 15:55:00,
2013-01-02 11:00:00,47.2,45.8,29.99,NE,40,6.0,16.0,95,0.00,,---,0.23,VWS V14.01,2013-01-02 16:00:00,
2013-01-02 11:05:00,47.2,45.8,29.99,NE,49,5.0,13.0,95,0.00,,---,0.23,VWS V14.01,2013-01-02 16:05:00,
2013-01-02 11:10:00,47.1,45.7,29.99,NE,42,9.0,14.0,95,0.00,,---,0.23,VWS V14.01,2013-01-02 16:10:00,
2013-01-02 11:15:00,47.2,45.8,29.99,NNE,23,8.0,14.0,95,0.00,,---,0.23,VWS V14.01,2013-01-02 16:15:00,
2013-01-02 11:20:00,47.3,45.9,29.99,NNE,19,11.0,11.0,95,0.00,,---,0.23,VWS V14.01,2013-01-02 16:20:00,
2013-01-02 11:25:00,47.2,45.8,29.99,NNE,21,7.0,14.0,95,0.00,,---,0.23,VWS V14.01,2013-01-02 16:25:00,
2013-01-02 11:30:00,47.3,45.9,29.99,NNE,14,9.0,14.0,95,0.00,,---,0.23,VWS V14.01,2013-01-02 16:30:00,
2013-01-02 11:35:00,47.2,45.8,29.99,NNE,32,4.0,11.0,95,0.00,,---,0.23,VWS V14.01,2013-01-02 16:35:00,
2013-01-02 11:40:00,47.4,46.0,29.99,NNE,18,5.0,9.0,95,0.00,,---,0.23,VWS V14.01,2013-01-02 16:40:00,
2013-01-02 11:45:00,47.4,46.0,29.99,NNE,18,6.0,10.0,95,0.00,,---,0.23,VWS V14.01,2013-01-02 16:45:00,
2013-01-02 11:50:00,47.4,46.0,29.98,NNE,28,5.0,7.0,95,0.00,,---,0.23,VWS V14.01,2013-01-02 16:50:00,
2013-01-02 11:55:00,47.6,46.2,29.98,NNE,24,7.0,8.0,95,0.00,,---,0.23,VWS V14.01,2013-01-02 16:55:00,
2013-01-02 12:00:00,47.7,46.3,29.98,NE,34,6.0,9.0,95,0.00,,---,0.23,VWS V14.01,2013-01-02 17:00:00,
2013-01-02 12:05:00,47.7,46.1,29.97,NNE,33,3.0,9.0,94,0.00,,---,0.23,VWS V14.01,2013-01-02 17:05:00,
2013-01-02 12:10:00,47.7,46.1,29.97,NNE,22,7.0,10.0,94,0.00,,---,0.23,VWS V14.01,2013-01-02 17:10:00,
2013-01-02 12:15:00,47.8,46.2,29.97,NNE,19,7.0,13.0,94,0.00,,---,0.23,VWS V14.01,2013-01-02 17:15:00,
2013-01-02 12:20:00,47.9,46.3,29.97,NNE,15,9.0,15.0,94,0.00,,---,0.23,VWS V14.01,2013-01-02 17:20:00,
2013-01-02 12:25:00,48.1,46.5,29.98,NNE,23,6.0,12.0,94,0.00,,---,0.23,VWS V14.01,2013-01-02 17:25:00,
2013-01-02 12:30:00,48.2,46.6,29.98,NNE,26,7.0,13.0,94,0.00,,---,0.23,VWS V14.01,2013-01-02 17:30:00,
2013-01-02 12:35:00,48.3,46.7,29.97,NNE,23,12.0,13.0,94,0.00,,---,0.23,VWS V14.01,2013-01-02 17:35:00,
2013-01-02 12:40:00,48.5,46.9,29.97,NNE,19,9.0,13.0,94,0.00,,---,0.23,VWS V14.01,2013-01-02 17:40:00,
2013-01-02 12:45:00,48.6,47.0,29.97,NNE,24,5.0,11.0,94,0.00,,---,0.23,VWS V14.01,2013-01-02 17:45:00,
2013-01-02 12:50:00,48.7,46.8,29.97,NNE,17,12.0,13.0,93,0.00,,---,0.23,VWS V14.01,2013-01-02 17:50:00,
2013-01-02 12:55:00,48.6,46.7,29.97,NNE,19,11.0,16.0,93,0.00,,---,0.23,VWS V14.01,2013-01-02 17:55:00,
2013-01-02 13:00:00,48.6,46.7,29.97,NNE,22,11.0,14.0,93,0.00,,---,0.23,VWS V14.01,2013-01-02 18:00:00,
2013-01-02 13:05:00,48.4,46.2,29.98,NNE,21,16.0,16.0,92,0.00,,---,0.23,VWS V14.01,2013-01-02 18:05:00,
2013-01-02 13:10:00,48.1,45.9,29.98,NNE,28,6.0,17.0,92,0.00,,---,0.23,VWS V14.01,2013-01-02 18:10:00,
2013-01-02 13:15:00,47.9,45.7,29.98,NNE,26,10.0,19.0,92,0.00,,---,0.23,VWS V14.01,2013-01-02 18:15:00,
2013-01-02 13:20:00,47.6,45.4,29.98,NNE,23,10.0,19.0,92,0.00,,---,0.23,VWS V14.01,2013-01-02 18:20:00,
2013-01-02 13:25:00,47.2,45.0,29.98,NNE,24,9.0,18.0,92,0.00,,---,0.23,VWS V14.01,2013-01-02 18:25:00,
2013-01-02 13:30:00,47.2,45.0,29.98,NE,44,7.0,16.0,92,0.00,,---,0.23,VWS V14.01,2013-01-02 18:30:00,
2013-01-02 13:35:00,47.2,45.0,29.98,NE,37,6.0,13.0,92,0.00,,---,0.23,VWS V14.01,2013-01-02 18:35:00,
2013-01-02 13:40:00,47.0,44.8,29.98,NNE,21,7.0,15.0,92,0.00,,---,0.23,VWS V14.01,2013-01-02 18:40:00,
2013-01-02 13:45:00,46.9,44.7,29.98,NE,34,5.0,17.0,92,0.00,,---,0.23,VWS V14.01,2013-01-02 18:45:00,
2013-01-02 13:50:00,47.0,44.8,29.97,NNE,32,12.0,14.0,92,0.00,,---,0.23,VWS V14.01,2013-01-02 18:50:00,
2013-01-02 13:55:00,47.2,45.0,29.97,NNE,14,12.0,14.0,92,0.00,,---,0.23,VWS V14.01,2013-01-02 18:55:00,
2013-01-02 14:00:00,46.8,44.6,29.97,NNE,19,13.0,16.0,92,0.00,,---,0.23,VWS V14.01,2013-01-02 19:00:00,
2013-01-02 14:05:00,46.4,44.2,29.98,NNE,15,9.0,16.0,92,0.00,,---,0.23,VWS V14.01,2013-01-02 19:05:00,
2013-01-02 14:10:00,46.3,44.1,29.98,North,5,13.0,15.0,92,0.00,,---,0.23,VWS V14.01,2013-01-02 19:10:00,
2013-01-02 14:15:00,46.1,43.9,29.98,NNE,18,12.0,17.0,92,0.00,,---,0.23,VWS V14.01,2013-01-02 19:15:00,
2013-01-02 14:20:00,45.9,43.7,29.98,NNE,26,11.0,16.0,92,0.00,,---,0.23,VWS V14.01,2013-01-02 19:20:00,
2013-01-02 14:25:00,45.9,43.7,30.00,North,11,13.0,16.0,92,0.00,,---,0.23,VWS V14.01,2013-01-02 19:25:00,
2013-01-02 14:30:00,45.5,43.0,30.00,NNE,23,13.0,19.0,91,0.00,,---,0.23,VWS V14.01,2013-01-02 19:30:00,
2013-01-02 14:35:00,45.6,43.4,30.00,NNE,30,9.0,15.0,92,0.00,,---,0.23,VWS V14.01,2013-01-02 19:35:00,
2013-01-02 14:40:00,45.4,43.2,30.00,NNE,25,13.0,18.0,92,0.00,,---,0.23,VWS V14.01,2013-01-02 19:40:00,
2013-01-02 14:45:00,45.2,43.0,30.00,NNE,24,12.0,15.0,92,0.00,,---,0.23,VWS V14.01,2013-01-02 19:45:00,
2013-01-02 14:50:00,45.0,42.8,30.00,North,11,8.0,17.0,92,0.00,,---,0.23,VWS V14.01,2013-01-02 19:50:00,
2013-01-02 14:55:00,44.9,42.7,30.00,NNE,24,13.0,15.0,92,0.00,,---,0.23,VWS V14.01,2013-01-02 19:55:00,
2013-01-02 15:00:00,44.8,42.6,30.00,NNE,17,11.0,14.0,92,0.00,,---,0.23,VWS V14.01,2013-01-02 20:00:00,
2013-01-02 15:05:00,44.8,42.6,30.00,NNE,17,10.0,15.0,92,0.00,,---,0.23,VWS V14.01,2013-01-02 20:05:00,
2013-01-02 15:10:00,44.7,42.5,30.02,NNE,16,12.0,17.0,92,0.00,,---,0.23,VWS V14.01,2013-01-02 20:10:00,
2013-01-02 15:15:00,44.7,42.5,30.02,NNE,29,12.0,14.0,92,0.00,,---,0.23,VWS V14.01,2013-01-02 20:15:00,
2013-01-02 15:20:00,44.9,42.7,30.02,NNE,29,7.0,12.0,92,0.00,,---,0.23,VWS V14.01,2013-01-02 20:20:00,
2013-01-02 15:25:00,44.9,42.7,30.02,NNE,15,13.0,14.0,92,0.00,,---,0.23,VWS V14.01,2013-01-02 20:25:00,
2013-01-02 15:30:00,44.8,42.6,30.02,NNE,18,11.0,19.0,92,0.00,,---,0.23,VWS V14.01,2013-01-02 20:30:00,
2013-01-02 15:35:00,44.7,42.5,30.02,NNE,22,14.0,17.0,92,0.00,,---,0.23,VWS V14.01,2013-01-02 20:35:00,
2013-01-02 15:40:00,44.6,42.4,30.02,NNE,23,11.0,16.0,92,0.00,,---,0.23,VWS V14.01,2013-01-02 20:40:00,
2013-01-02 15:45:00,44.5,42.3,30.02,North,5,14.0,15.0,92,0.00,,---,0.23,VWS V14.01,2013-01-02 20:45:00,
2013-01-02 15:50:00,44.5,42.3,30.02,NNE,15,11.0,15.0,92,0.00,,---,0.23,VWS V14.01,2013-01-02 20:50:00,
2013-01-02 15:55:00,44.6,42.4,30.04,NNE,17,12.0,13.0,92,0.00,,---,0.23,VWS V14.01,2013-01-02 20:55:00,
2013-01-02 16:00:00,44.5,42.3,30.04,NNE,22,12.0,14.0,92,0.00,,---,0.23,VWS V14.01,2013-01-02 21:00:00,
2013-01-02 16:05:00,44.6,42.1,30.04,NNE,18,9.0,13.0,91,0.00,,---,0.23,VWS V14.01,2013-01-02 21:05:00,
2013-01-02 16:10:00,44.6,42.1,30.04,NNE,20,6.0,16.0,91,0.00,,---,0.23,VWS V14.01,2013-01-02 21:10:00,
2013-01-02 16:15:00,44.8,42.3,30.04,NNE,22,8.0,12.0,91,0.00,,---,0.23,VWS V14.01,2013-01-02 21:15:00,
2013-01-02 16:20:00,44.8,42.3,30.04,NNE,19,5.0,15.0,91,0.00,,---,0.23,VWS V14.01,2013-01-02 21:20:00,
2013-01-02 16:25:00,44.8,42.3,30.05,NNE,23,7.0,15.0,91,0.00,,---,0.23,VWS V14.01,2013-01-02 21:25:00,
2013-01-02 16:30:00,44.8,42.3,30.05,NE,40,4.0,13.0,91,0.00,,---,0.23,VWS V14.01,2013-01-02 21:30:00,
2013-01-02 16:35:00,44.9,42.4,30.05,NNE,16,3.0,13.0,91,0.00,,---,0.23,VWS V14.01,2013-01-02 21:35:00,
2013-01-02 16:40:00,44.9,42.2,30.06,NNE,20,9.0,13.0,90,0.00,,---,0.23,VWS V14.01,2013-01-02 21:40:00,
2013-01-02 16:45:00,44.9,42.2,30.06,NNE,29,10.0,12.0,90,0.00,,---,0.23,VWS V14.01,2013-01-02 21:45:00,
2013-01-02 16:50:00,44.8,42.0,30.06,NNE,13,7.0,13.0,90,0.00,,---,0.23,VWS V14.01,2013-01-02 21:50:00,
2013-01-02 16:55:00,44.8,42.3,30.05,NNE,24,9.0,13.0,91,0.00,,---,0.23,VWS V14.01,2013-01-02 21:55:00,
2013-01-02 17:00:00,44.8,42.3,30.05,NNE,26,8.0,13.0,91,0.00,,---,0.23,VWS V14.01,2013-01-02 22:00:00,
2013-01-02 17:05:00,44.7,42.0,30.05,NE,36,4.0,12.0,90,0.00,,---,0.23,VWS V14.01,2013-01-02 22:05:00,
2013-01-02 17:10:00,44.6,41.8,30.06,NNE,30,6.0,13.0,90,0.00,,---,0.23,VWS V14.01,2013-01-02 22:10:00,
2013-01-02 17:15:00,44.6,41.8,30.06,NNE,19,8.0,15.0,90,0.00,,---,0.23,VWS V14.01,2013-01-02 22:15:00,
2013-01-02 17:20:00,44.5,41.8,30.06,NE,42,8.0,16.0,90,0.00,,---,0.23,VWS V14.01,2013-01-02 22:20:00,
2013-01-02 17:25:00,44.4,41.7,30.07,NNE,25,7.0,13.0,90,0.00,,---,0.23,VWS V14.01,2013-01-02 22:25:00,
2013-01-02 17:30:00,44.4,41.7,30.07,NNE,16,14.0,14.0,90,0.00,,---,0.23,VWS V14.01,2013-01-02 22:30:00,
2013-01-02 17:35:00,44.3,41.6,30.07,NE,36,9.0,13.0,90,0.00,,---,0.23,VWS V14.01,2013-01-02 22:35:00,
2013-01-02 17:40:00,44.2,41.5,30.07,NE,34,9.0,14.0,90,0.00,,---,0.23,VWS V14.01,2013-01-02 22:40:00,
2013-01-02 17:45:00,44.3,41.6,30.07,NNE,27,9.0,13.0,90,0.00,,---,0.23,VWS V14.01,2013-01-02 22:45:00,
2013-01-02 17:50:00,44.3,41.6,30.07,NE,36,2.0,12.0,90,0.00,,---,0.23,VWS V14.01,2013-01-02 22:50:00,
2013-01-02 17:55:00,44.1,41.4,30.08,NE,42,4.0,14.0,90,0.00,,---,0.23,VWS V14.01,2013-01-02 22:55:00,
2013-01-02 18:00:00,44.0,41.3,30.08,NE,39,6.0,13.0,90,0.00,,---,0.23,VWS V14.01,2013-01-02 23:00:00,
2013-01-02 18:05:00,43.9,41.2,30.08,NNE,20,13.0,14.0,90,0.00,,---,0.23,VWS V14.01,2013-01-02 23:05:00,
2013-01-02 18:10:00,43.9,41.2,30.08,NNE,22,11.0,12.0,90,0.00,,---,0.23,VWS V14.01,2013-01-02 23:10:00,
2013-01-02 18:15:00,43.9,41.2,30.08,NNE,22,5.0,13.0,90,0.00,,---,0.23,VWS V14.01,2013-01-02 23:15:00,
2013-01-02 18:20:00,43.8,41.1,30.08,NE,34,12.0,13.0,90,0.00,,---,0.23,VWS V14.01,2013-01-02 23:20:00,
2013-01-02 18:25:00,43.7,41.0,30.08,NNE,17,13.0,16.0,90,0.00,,---,0.23,VWS V14.01,2013-01-02 23:25:00,
2013-01-02 18:30:00,43.7,41.0,30.08,NNE,19,7.0,16.0,90,0.00,,---,0.23,VWS V14.01,2013-01-02 23:30:00,
2013-01-02 18:35:00,43.6,40.9,30.08,NNE,28,11.0,18.0,90,0.00,,---,0.23,VWS V14.01,2013-01-02 23:35:00,
2013-01-02 18:40:00,43.5,40.8,30.08,NNE,18,12.0,14.0,90,0.00,,---,0.23,VWS V14.01,2013-01-02 23:40:00,
2013-01-02 18:45:00,43.5,40.5,30.08,NNE,29,5.0,15.0,89,0.00,,---,0.23,VWS V14.01,2013-01-02 23:45:00,
2013-01-02 18:50:00,43.4,40.4,30.08,NE,39,12.0,13.0,89,0.00,,---,0.23,VWS V14.01,2013-01-02 23:50:00,
2013-01-02 18:55:00,43.4,40.4,30.09,NNE,30,6.0,17.0,89,0.00,,---,0.23,VWS V14.01,2013-01-02 23:55:00,
2013-01-02 19:00:00,43.6,40.6,30.09,North,9,12.0,14.0,89,0.00,,---,0.23,VWS V14.01,2013-01-03 00:00:00,
2013-01-02 19:05:00,43.5,40.5,30.09,NE,36,4.0,16.0,89,0.00,,---,0.23,VWS V14.01,2013-01-03 00:05:00,
2013-01-02 19:10:00,43.4,40.4,30.10,NNE,22,6.0,16.0,89,0.00,,---,0.23,VWS V14.01,2013-01-03 00:10:00,
2013-01-02 19:15:00,43.4,40.4,30.10,NNE,21,7.0,14.0,89,0.00,,---,0.23,VWS V14.01,2013-01-03 00:15:00,
2013-01-02 19:20:00,43.5,40.5,30.10,NNE,29,10.0,14.0,89,0.00,,---,0.23,VWS V14.01,2013-01-03 00:20:00,
2013-01-02 19:25:00,43.4,40.1,30.10,NNE,21,17.0,18.0,88,0.00,,---,0.23,VWS V14.01,2013-01-03 00:25:00,
2013-01-02 19:30:00,43.3,40.0,30.10,NNE,22,12.0,16.0,88,0.00,,---,0.23,VWS V14.01,2013-01-03 00:30:00,
2013-01-02 19:35:00,43.3,40.0,30.10,NE,44,5.0,14.0,88,0.00,,---,0.23,VWS V14.01,2013-01-03 00:35:00,
2013-01-02 19:40:00,43.2,39.9,30.10,NE,34,6.0,13.0,88,0.00,,---,0.23,VWS V14.01,2013-01-03 00:40:00,
2013-01-02 19:45:00,43.1,39.8,30.10,NE,37,6.0,20.0,88,0.00,,---,0.23,VWS V14.01,2013-01-03 00:45:00,
2013-01-02 19:50:00,43.2,39.9,30.10,NE,40,9.0,13.0,88,0.00,,---,0.23,VWS V14.01,2013-01-03 00:50:00,
2013-01-02 19:55:00,42.9,39.3,30.10,NE,40,11.0,13.0,87,0.00,,---,0.23,VWS V14.01,2013-01-03 00:55:00,
2013-01-02 20:00:00,42.9,39.3,30.10,NNE,22,17.0,20.0,87,0.00,,---,0.23,VWS V14.01,2013-01-03 01:00:00,
2013-01-02 20:05:00,42.8,39.2,30.10,NE,40,9.0,14.0,87,0.00,,---,0.23,VWS V14.01,2013-01-03 01:05:00,
2013-01-02 20:10:00,42.7,39.1,30.08,ENE,63,12.0,16.0,87,0.00,,---,0.23,VWS V14.01,2013-01-03 01:10:00,
2013-01-02 20:15:00,42.6,38.7,30.08,NNE,23,6.0,20.0,86,0.00,,---,0.23,VWS V14.01,2013-01-03 01:15:00,
2013-01-02 20:20:00,42.6,38.7,30.08,NNE,24,9.0,14.0,86,0.00,,---,0.23,VWS V14.01,2013-01-03 01:20:00,
2013-01-02 20:25:00,42.4,38.5,30.10,NE,49,13.0,15.0,86,0.00,,---,0.23,VWS V14.01,2013-01-03 01:25:00,
2013-01-02 20:30:00,42.3,38.4,30.10,NNE,28,5.0,12.0,86,0.00,,---,0.23,VWS V14.01,2013-01-03 01:30:00,
2013-01-02 20:35:00,42.2,38.3,30.10,NE,38,5.0,14.0,86,0.00,,---,0.23,VWS V14.01,2013-01-03 01:35:00,
2013-01-02 20:40:00,42.3,38.4,30.11,NE,38,9.0,12.0,86,0.00,,---,0.23,VWS V14.01,2013-01-03 01:40:00,
2013-01-02 20:45:00,42.2,38.0,30.11,NNE,27,6.0,14.0,85,0.00,,---,0.23,VWS V14.01,2013-01-03 01:45:00,
2013-01-02 20:50:00,42.2,38.3,30.11,NNE,31,10.0,14.0,86,0.00,,---,0.23,VWS V14.01,2013-01-03 01:50:00,
2013-01-02 20:55:00,42.2,38.0,30.13,NNE,28,13.0,14.0,85,0.00,,---,0.23,VWS V14.01,2013-01-03 01:55:00,
2013-01-02 21:00:00,42.1,37.9,30.13,NNE,26,9.0,17.0,85,0.00,,---,0.23,VWS V14.01,2013-01-03 02:00:00,
2013-01-02 21:05:00,42.2,38.0,30.13,NE,34,6.0,11.0,85,0.00,,---,0.23,VWS V14.01,2013-01-03 02:05:00,
2013-01-02 21:10:00,42.1,37.9,30.11,NE,41,6.0,13.0,85,0.00,,---,0.23,VWS V14.01,2013-01-03 02:10:00,
2013-01-02 21:15:00,42.0,37.8,30.11,NNE,21,13.0,16.0,85,0.00,,---,0.23,VWS V14.01,2013-01-03 02:15:00,
2013-01-02 21:20:00,42.0,37.8,30.11,NNE,27,7.0,13.0,85,0.00,,---,0.23,VWS V14.01,2013-01-03 02:20:00,
2013-01-02 21:25:00,41.9,37.7,30.12,NNE,30,9.0,13.0,85,0.00,,---,0.23,VWS V14.01,2013-01-03 02:25:00,
2013-01-02 21:30:00,41.8,37.6,30.12,NNE,23,7.0,14.0,85,0.00,,---,0.23,VWS V14.01,2013-01-03 02:30:00,
2013-01-02 21:35:00,41.9,37.7,30.12,NNE,24,14.0,18.0,85,0.00,,---,0.23,VWS V14.01,2013-01-03 02:35:00,
2013-01-02 21:40:00,41.9,37.7,30.13,NNE,20,13.0,15.0,85,0.00,,---,0.23,VWS V14.01,2013-01-03 02:40:00,
2013-01-02 21:45:00,42.0,37.8,30.13,NNE,33,7.0,13.0,85,0.00,,---,0.23,VWS V14.01,2013-01-03 02:45:00,
2013-01-02 21:50:00,41.9,37.7,30.13,NE,44,6.0,13.0,85,0.00,,---,0.23,VWS V14.01,2013-01-03 02:50:00,
2013-01-02 21:55:00,41.9,37.7,30.12,NE,36,9.0,10.0,85,0.00,,---,0.23,VWS V14.01,2013-01-03 02:55:00,
2013-01-02 22:00:00,41.8,37.6,30.12,NE,52,4.0,13.0,85,0.00,,---,0.23,VWS V14.01,2013-01-03 03:00:00,
2013-01-02 22:05:00,41.8,37.6,30.12,NE,42,4.0,12.0,85,0.00,,---,0.23,VWS V14.01,2013-01-03 03:05:00,
2013-01-02 22:10:00,41.7,37.5,30.13,NE,42,10.0,12.0,85,0.00,,---,0.23,VWS V14.01,2013-01-03 03:10:00,
2013-01-02 22:15:00,41.7,37.5,30.13,NNE,20,8.0,11.0,85,0.00,,---,0.23,VWS V14.01,2013-01-03 03:15:00,
2013-01-02 22:20:00,41.6,37.4,30.13,NE,49,6.0,12.0,85,0.00,,---,0.23,VWS V14.01,2013-01-03 03:20:00,
2013-01-02 22:25:00,41.6,37.4,30.12,NE,34,7.0,12.0,85,0.00,,---,0.23,VWS V14.01,2013-01-03 03:25:00,
2013-01-02 22:31:00,41.6,37.4,30.12,NE,40,7.0,14.0,85,0.00,,---,0.23,VWS V14.01,2013-01-03 03:31:00,
2013-01-02 22:36:00,41.7,37.5,30.13,NE,38,5.0,13.0,85,0.00,,---,0.23,VWS V14.01,2013-01-03 03:36:00,
2013-01-02 22:41:00,41.8,37.6,30.13,NNE,26,7.0,13.0,85,0.00,,---,0.23,VWS V14.01,2013-01-03 03:41:00,
2013-01-02 22:46:00,41.7,37.5,30.13,NE,38,13.0,15.0,85,0.00,,---,0.23,VWS V14.01,2013-01-03 03:46:00,
2013-01-02 22:51:00,41.6,37.4,30.13,NNE,28,11.0,15.0,85,0.00,,---,0.23,VWS V14.01,2013-01-03 03:51:00,
2013-01-02 22:56:00,41.7,37.5,30.13,NNE,23,9.0,14.0,85,0.00,,---,0.23,VWS V14.01,2013-01-03 03:56:00,
2013-01-02 23:01:00,41.7,37.5,30.13,NNE,17,12.0,14.0,85,0.00,,---,0.23,VWS V14.01,2013-01-03 04:01:00,
2013-01-02 23:06:00,41.7,37.5,30.13,NNE,26,11.0,17.0,85,0.00,,---,0.23,VWS V14.01,2013-01-03 04:06:00,
2013-01-02 23:11:00,41.7,37.5,30.13,NNE,28,9.0,16.0,85,0.00,,---,0.23,VWS V14.01,2013-01-03 04:11:00,
2013-01-02 23:16:00,41.7,37.5,30.13,NE,48,4.0,15.0,85,0.00,,---,0.23,VWS V14.01,2013-01-03 04:16:00,
2013-01-02 23:21:00,41.7,37.5,30.12,NE,38,5.0,13.0,85,0.00,,---,0.23,VWS V14.01,2013-01-03 04:21:00,
2013-01-02 23:26:00,41.6,37.4,30.12,NE,45,9.0,14.0,85,0.00,,---,0.23,VWS V14.01,2013-01-03 04:26:00,
2013-01-02 23:31:00,41.6,37.1,30.12,NE,55,4.0,15.0,84,0.00,,---,0.23,VWS V14.01,2013-01-03 04:31:00,
2013-01-02 23:36:00,41.6,37.1,30.12,NE,49,8.0,13.0,84,0.00,,---,0.23,VWS V14.01,2013-01-03 04:36:00,
2013-01-02 23:41:00,41.6,37.1,30.12,NE,36,3.0,14.0,84,0.00,,---,0.23,VWS V14.01,2013-01-03 04:41:00,
2013-01-02 23:46:00,41.8,37.3,30.12,NNE,27,10.0,11.0,84,0.00,,---,0.23,VWS V14.01,2013-01-03 04:46:00,
2013-01-02 23:51:00,41.8,37.0,30.11,NNE,17,13.0,17.0,83,0.00,,---,0.23,VWS V14.01,2013-01-03 04:51:00,
2013-01-02 23:56:00,41.8,37.0,30.11,NNE,21,9.0,17.0,83,0.00,,---,0.23,VWS V14.01,2013-01-03 04:56:00,